Weather History for Osceola Municipal, IA

Change the Weather History Date:

Monday, September 1, 2014

  Actual Average (KLWD) Record (KLWD)
Temperature  
Mean Temperature 72 °F 71 °F  
Max Temperature 79 °F 81 °F 97 °F (1975)
Min Temperature 64 °F 60 °F 38 °F (1949)
Degree Days  
Heating Degree Days 0 1  
Month to date heating degree days 1  
Since 1 July heating degree days 9  
Cooling Degree Days 6 6  
Month to date cooling degree days 6  
Year to date cooling degree days 844  
Growing Degree Days 22 (Base 50)    
Moisture  
Dew Point 65 °F    
Average Humidity 82    
Maximum Humidity 94    
Minimum Humidity 59    
Precipitation  
Precipitation 0.10 in 0.15 in 1.30 in (1977)
Month to date precipitation 0.15  
Sea Level Pressure  
Sea Level Pressure 29.82 in    
Wind  
Wind Speed 9 mph (SW)    
Max Wind Speed 17 mph    
Max Gust Speed 26 mph    
Visibility 10 miles    
Events Rain    
T = Trace of Precipitation, MM = Missing Value Source: NWS Daily Summary

Daily Weather History Graph

Daily Weather History Graph

Search for Another Location

Airport:

Trip Planner

Search our weather history database for the weather conditions in past years. The results will help you decide how hot, cold, wet, or windy it might be!

Date:

Astronomy

Sep. 01, 2014 Rise Set
Actual Time 6:41 AM CDT 7:47 PM CDT
Civil Twilight 6:13 AM CDT 8:15 PM CDT
Nautical Twilight 5:39 AM CDT 8:49 PM CDT
Astronomical Twilight 5:04 AM CDT 9:24 PM CDT
Moon 1:31 PM CDT (9/1) 11:45 PM CDT (9/1)
Length of Visible Light 14h 02m
Length of Day
13h 05m
Waxing Crescent, 42% of the Moon is Illuminated
Sep 1
Waxing Crescent
Sep 2
First Quarter
Sep 8
Full
Sep 15
Last Quarter
Sep 24
New

Hourly Weather History & Observations

Time (CDT) Temp. Dew Point Humidity Pressure Visibility Wind Dir Wind Speed Gust Speed Precip Events Conditions
12:15 AM 67.3 °F 64.4 °F 90% 29.77 in 10.0 mi SSE 8.1 mph - 0.04 in Rain Light Rain
12:35 AM 67.1 °F 64.0 °F 90% 29.75 in 10.0 mi SE 11.5 mph - 0.08 in Rain Light Rain
12:55 AM 66.6 °F 63.3 °F 89% 29.62 in 10.0 mi ESE 17.3 mph 26.5 mph 0.10 in Rain Light Rain
1:15 AM 67.1 °F 63.5 °F 88% 29.69 in 10.0 mi South 8.1 mph - N/A   Scattered Clouds
1:35 AM 66.6 °F 63.7 °F 90% 29.73 in 10.0 mi South 8.1 mph - N/A   Clear
1:55 AM 66.4 °F 63.9 °F 92% 29.76 in 10.0 mi WSW 8.1 mph - N/A   Scattered Clouds
2:15 AM 66.4 °F 63.9 °F 92% 29.76 in 10.0 mi SW 5.8 mph - N/A   Scattered Clouds
2:35 AM 66.2 °F 63.7 °F 92% 29.76 in 10.0 mi SSW 5.8 mph - N/A   Scattered Clouds
2:55 AM 66.4 °F 64.0 °F 92% 29.77 in 10.0 mi South 5.8 mph - N/A   Mostly Cloudy
3:15 AM 67.1 °F 64.4 °F 91% 29.77 in 10.0 mi South 9.2 mph 17.3 mph N/A   Overcast
3:35 AM 67.3 °F 64.4 °F 90% 29.74 in 10.0 mi South 8.1 mph - N/A   Overcast
3:55 AM 67.6 °F 64.0 °F 88% 29.72 in 10.0 mi SSW 13.8 mph 21.9 mph N/A   Mostly Cloudy
4:15 AM 67.8 °F 63.5 °F 86% 29.72 in 10.0 mi West 8.1 mph 26.5 mph N/A   Scattered Clouds
4:35 AM 68.0 °F 63.5 °F 85% 29.73 in 10.0 mi SW 11.5 mph 16.1 mph N/A   Scattered Clouds
4:55 AM 67.6 °F 63.5 °F 87% 29.73 in 10.0 mi SSW 9.2 mph - N/A   Scattered Clouds
5:15 AM 67.1 °F 63.5 °F 88% 29.74 in 10.0 mi SW 6.9 mph - N/A   Scattered Clouds
5:35 AM 66.7 °F 63.7 °F 90% 29.75 in 10.0 mi SW 6.9 mph - N/A   Mostly Cloudy
6:15 AM 67.3 °F 63.7 °F 88% 29.77 in 10.0 mi SW 9.2 mph - N/A   Overcast
6:35 AM 67.3 °F 63.7 °F 88% 29.78 in 10.0 mi SW 10.4 mph 16.1 mph N/A   Overcast
6:55 AM 67.3 °F 63.9 °F 89% 29.79 in 10.0 mi SW 8.1 mph - N/A   Overcast
7:15 AM 67.3 °F 63.9 °F 89% 29.79 in 10.0 mi SW 9.2 mph - N/A   Overcast
7:35 AM 67.3 °F 64.0 °F 89% 29.80 in 10.0 mi SW 10.4 mph - N/A   Overcast
8:15 AM 68.2 °F 64.4 °F 88% 29.80 in 10.0 mi SW 10.4 mph - N/A   Mostly Cloudy
8:35 AM 69.3 °F 65.1 °F 87% 29.80 in 10.0 mi SW 12.7 mph 18.4 mph N/A   Scattered Clouds
9:15 AM 70.0 °F 65.5 °F 86% 29.81 in 10.0 mi SW 10.4 mph - N/A   Overcast
9:35 AM 71.1 °F 66.2 °F 85% 29.81 in 10.0 mi SW 12.7 mph 17.3 mph N/A   Overcast
10:15 AM 71.6 °F 64.9 °F 79% 29.83 in 10.0 mi WSW 16.1 mph 23.0 mph N/A   Mostly Cloudy
10:35 AM 73.6 °F 66.0 °F 77% 29.83 in 10.0 mi SW 17.3 mph - N/A   Mostly Cloudy
11:15 AM 75.6 °F 65.8 °F 72% 29.83 in 10.0 mi WSW 15.0 mph 20.7 mph N/A   Mostly Cloudy
11:35 AM 75.7 °F 65.8 °F 71% 29.83 in 10.0 mi SW 15.0 mph 20.7 mph N/A   Mostly Cloudy
11:55 AM 76.5 °F 65.8 °F 70% 29.83 in 10.0 mi WSW 17.3 mph - N/A   Mostly Cloudy
12:35 PM 77.2 °F 66.7 °F 70% 29.83 in 10.0 mi WSW 11.5 mph 17.3 mph N/A   Mostly Cloudy
1:15 PM 78.3 °F 65.1 °F 64% 29.83 in 10.0 mi West 12.7 mph - N/A   Mostly Cloudy
1:35 PM 77.7 °F 64.9 °F 65% 29.84 in 10.0 mi West 15.0 mph 19.6 mph N/A   Mostly Cloudy
1:55 PM 79.2 °F 65.3 °F 62% 29.84 in 10.0 mi West 15.0 mph 18.4 mph N/A   Scattered Clouds
2:15 PM 78.8 °F 64.9 °F 62% 29.85 in 10.0 mi West 15.0 mph - N/A   Scattered Clouds
2:35 PM 77.9 °F 65.1 °F 65% 29.85 in 10.0 mi West 11.5 mph 16.1 mph N/A   Mostly Cloudy
3:15 PM 77.9 °F 64.0 °F 62% 29.86 in 10.0 mi West 11.5 mph - N/A   Scattered Clouds
3:35 PM 76.6 °F 64.4 °F 66% 29.86 in 10.0 mi West 11.5 mph - N/A   Mostly Cloudy
3:55 PM 76.1 °F 64.0 °F 66% 29.86 in 10.0 mi West 8.1 mph - N/A   Scattered Clouds
4:15 PM 77.9 °F 65.5 °F 65% 29.86 in 10.0 mi West 8.1 mph - N/A   Scattered Clouds
4:35 PM 78.8 °F 63.3 °F 59% 29.86 in 10.0 mi West 10.4 mph - N/A   Clear
5:15 PM 77.0 °F 63.1 °F 62% 29.87 in 10.0 mi West 8.1 mph - N/A   Scattered Clouds
5:35 PM 76.8 °F 63.7 °F 64% 29.87 in 10.0 mi West 5.8 mph - N/A   Scattered Clouds
6:15 PM 74.8 °F 64.4 °F 70% 29.88 in 10.0 mi West 3.5 mph - N/A   Mostly Cloudy
6:35 PM 74.3 °F 65.3 °F 73% 29.87 in 10.0 mi Calm Calm - N/A   Mostly Cloudy
6:55 PM 73.4 °F 67.6 °F 82% 29.86 in 10.0 mi Calm Calm - N/A   Mostly Cloudy
7:15 PM 72.7 °F 67.1 °F 83% 29.87 in 10.0 mi West 3.5 mph - N/A   Scattered Clouds
7:35 PM 71.6 °F 67.1 °F 86% 29.89 in 10.0 mi Calm Calm - N/A   Scattered Clouds
7:55 PM 71.2 °F 66.7 °F 86% 29.88 in 10.0 mi West 4.6 mph - N/A   Mostly Cloudy
8:15 PM 70.7 °F 66.9 °F 88% 29.87 in 10.0 mi Calm Calm - N/A Rain Light Rain
8:35 PM 70.2 °F 65.3 °F 85% 29.88 in 10.0 mi WNW 3.5 mph - N/A   Scattered Clouds
9:15 PM 68.5 °F 65.7 °F 90% 29.86 in 10.0 mi SE 4.6 mph - N/A   Scattered Clouds
9:35 PM 68.4 °F 65.7 °F 91% 29.85 in 10.0 mi Calm Calm - N/A   Scattered Clouds
9:55 PM 68.5 °F 65.3 °F 89% 29.87 in 10.0 mi West 3.5 mph - N/A   Scattered Clouds
10:15 PM 68.0 °F 64.8 °F 89% 29.88 in 10.0 mi Calm Calm - N/A   Clear
10:35 PM 67.1 °F 64.4 °F 91% 29.88 in 10.0 mi Calm Calm - N/A   Clear
10:55 PM 65.7 °F 63.7 °F 93% 29.89 in 10.0 mi Calm Calm - N/A   Clear
11:15 PM 65.5 °F 63.3 °F 93% 29.89 in 10.0 mi Calm Calm - N/A   Clear
11:35 PM 64.6 °F 63.0 °F 94% 29.90 in 10.0 mi Calm Calm - N/A   Clear
11:55 PM 64.8 °F 63.1 °F 94% 29.91 in 10.0 mi Calm Calm - N/A   Clear